Pit Above Pit 1 Powerhouse [ USA-CAL ]

Edit Gauge

Current Conditions

Reading of "n/a" = frozen gauge or gauge error.
Reading Trend Type Updated
running 0.0 r.c./hr Status 02h45m
798 cfs -59 cfs/hr Flow 02h45m

Station Description

AW Gauge ID: 48900
Source: dream
Station: 035
Enabled yes
AW thanks Chris Shackleton and Dreamflows for this data. Dreamflows data should only be analyzed in the context of the Dreamflows site. Data is often calculated and/or approximated. Please see Chris's site for a complete description of how this data should and can be interpreted. Source Gauge's Page

Information

Flow

Gauge History

Times listed in GMT 24h, ET and PT hours provided for convenience Graphs in GMT. Readings of "n/a" constitute a frozen gauge or gauge error.
Reading Updated (GMT) Eastern Pacific Comment
798.00 01/20/2019 03:58:56 Jan 19 10:58 pm Jan 19 7:58 pm
857.00 01/20/2019 02:59:12 Jan 19 09:59 pm Jan 19 6:59 pm
863.00 01/20/2019 01:59:28 Jan 19 08:59 pm Jan 19 5:59 pm
863.00 01/20/2019 00:59:44 Jan 19 07:59 pm Jan 19 4:59 pm
851.00 01/20/2019 00:00:00 Jan 19 07:00 pm Jan 19 4:00 pm
1017.00 01/19/2019 22:58:08 Jan 19 05:58 pm Jan 19 2:58 pm
913.00 01/19/2019 21:58:24 Jan 19 04:58 pm Jan 19 1:58 pm
921.00 01/19/2019 20:58:40 Jan 19 03:58 pm Jan 19 12:58 pm
926.00 01/19/2019 19:58:56 Jan 19 02:58 pm Jan 19 11:58 am
929.00 01/19/2019 18:59:12 Jan 19 01:59 pm Jan 19 10:59 am
987.00 01/19/2019 17:59:28 Jan 19 12:59 pm Jan 19 9:59 am
983.00 01/19/2019 16:59:44 Jan 19 11:59 am Jan 19 8:59 am
1041.00 01/19/2019 13:58:24 Jan 19 08:58 am Jan 19 5:58 am
1046.00 01/19/2019 12:58:40 Jan 19 07:58 am Jan 19 4:58 am
1032.00 01/19/2019 11:58:56 Jan 19 06:58 am Jan 19 3:58 am
1098.00 01/19/2019 10:59:12 Jan 19 05:59 am Jan 19 2:59 am
1102.00 01/19/2019 09:59:28 Jan 19 04:59 am Jan 19 1:59 am
1215.00 01/19/2019 08:00:00 Jan 19 03:00 am Jan 19 12:00 am
1353.00 01/18/2019 20:58:40 Jan 18 03:58 pm Jan 18 12:58 pm
1363.00 01/18/2019 16:00:00 Jan 18 11:00 am Jan 18 8:00 am
1240.00 01/18/2019 14:58:08 Jan 18 09:58 am Jan 18 6:58 am
1109.00 01/18/2019 13:58:24 Jan 18 08:58 am Jan 18 5:58 am
1062.00 01/18/2019 12:58:40 Jan 18 07:58 am Jan 18 4:58 am
976.00 01/18/2019 11:58:56 Jan 18 06:58 am Jan 18 3:58 am
1050.00 01/18/2019 10:59:12 Jan 18 05:59 am Jan 18 2:59 am
1037.00 01/18/2019 08:59:44 Jan 18 03:59 am Jan 18 12:59 am
1183.00 01/18/2019 04:58:40 Jan 17 11:58 pm Jan 17 8:58 pm
1182.00 01/18/2019 03:58:56 Jan 17 10:58 pm Jan 17 7:58 pm
1227.00 01/18/2019 01:59:28 Jan 17 08:59 pm Jan 17 5:59 pm
1224.00 01/18/2019 00:59:44 Jan 17 07:59 pm Jan 17 4:59 pm
881.00 01/18/2019 00:00:00 Jan 17 07:00 pm Jan 17 4:00 pm
1191.00 01/17/2019 22:58:08 Jan 17 05:58 pm Jan 17 2:58 pm
1052.00 01/17/2019 21:58:24 Jan 17 04:58 pm Jan 17 1:58 pm
1123.00 01/17/2019 20:58:40 Jan 17 03:58 pm Jan 17 12:58 pm
1002.00 01/17/2019 19:58:56 Jan 17 02:58 pm Jan 17 11:58 am
813.00 01/17/2019 18:59:12 Jan 17 01:59 pm Jan 17 10:59 am
706.00 01/17/2019 17:59:28 Jan 17 12:59 pm Jan 17 9:59 am
795.00 01/17/2019 16:59:44 Jan 17 11:59 am Jan 17 8:59 am
637.00 01/17/2019 16:00:00 Jan 17 11:00 am Jan 17 8:00 am
619.00 01/17/2019 14:58:08 Jan 17 09:58 am Jan 17 6:58 am
166.00 01/17/2019 13:58:24 Jan 17 08:58 am Jan 17 5:58 am
658.00 01/17/2019 12:58:40 Jan 17 07:58 am Jan 17 4:58 am
390.00 01/17/2019 11:58:56 Jan 17 06:58 am Jan 17 3:58 am
649.00 01/17/2019 10:59:12 Jan 17 05:59 am Jan 17 2:59 am
635.00 01/17/2019 09:59:28 Jan 17 04:59 am Jan 17 1:59 am
686.00 01/17/2019 08:59:44 Jan 17 03:59 am Jan 17 12:59 am
480.00 01/17/2019 04:58:40 Jan 16 11:58 pm Jan 16 8:58 pm
471.00 01/17/2019 03:58:56 Jan 16 10:58 pm Jan 16 7:58 pm
540.00 01/17/2019 02:59:12 Jan 16 09:59 pm Jan 16 6:59 pm
430.00 01/17/2019 01:59:28 Jan 16 08:59 pm Jan 16 5:59 pm
209.00 01/17/2019 00:59:44 Jan 16 07:59 pm Jan 16 4:59 pm
408.00 01/17/2019 00:00:00 Jan 16 07:00 pm Jan 16 4:00 pm
281.00 01/16/2019 22:58:08 Jan 16 05:58 pm Jan 16 2:58 pm
449.00 01/16/2019 21:58:24 Jan 16 04:58 pm Jan 16 1:58 pm
439.00 01/16/2019 20:58:40 Jan 16 03:58 pm Jan 16 12:58 pm
542.00 01/16/2019 19:58:56 Jan 16 02:58 pm Jan 16 11:58 am
825.00 01/16/2019 18:59:12 Jan 16 01:59 pm Jan 16 10:59 am
401.00 01/16/2019 17:59:28 Jan 16 12:59 pm Jan 16 9:59 am
418.00 01/16/2019 16:59:44 Jan 16 11:59 am Jan 16 8:59 am
574.00 01/16/2019 16:00:00 Jan 16 11:00 am Jan 16 8:00 am
426.00 01/15/2019 19:58:56 Jan 15 02:58 pm Jan 15 11:58 am
29.00 01/15/2019 12:58:40 Jan 15 07:58 am Jan 15 4:58 am
385.00 01/15/2019 10:59:12 Jan 15 05:59 am Jan 15 2:59 am
489.00 01/15/2019 08:00:00 Jan 15 03:00 am Jan 15 12:00 am
417.00 01/15/2019 00:00:00 Jan 14 07:00 pm Jan 14 4:00 pm
385.00 01/14/2019 21:58:24 Jan 14 04:58 pm Jan 14 1:58 pm
525.00 01/14/2019 19:58:56 Jan 14 02:58 pm Jan 14 11:58 am
506.00 01/14/2019 18:59:12 Jan 14 01:59 pm Jan 14 10:59 am
406.00 01/14/2019 12:58:40 Jan 14 07:58 am Jan 14 4:58 am
422.00 01/14/2019 09:59:28 Jan 14 04:59 am Jan 14 1:59 am
118.00 01/14/2019 00:59:44 Jan 13 07:59 pm Jan 13 4:59 pm
394.00 01/13/2019 21:58:24 Jan 13 04:58 pm Jan 13 1:58 pm
420.00 01/13/2019 19:58:56 Jan 13 02:58 pm Jan 13 11:58 am
417.00 01/13/2019 18:59:12 Jan 13 01:59 pm Jan 13 10:59 am
525.00 01/13/2019 16:00:00 Jan 13 11:00 am Jan 13 8:00 am
86.00 01/13/2019 12:58:40 Jan 13 07:58 am Jan 13 4:58 am
561.00 01/13/2019 10:59:12 Jan 13 05:59 am Jan 13 2:59 am
440.00 01/13/2019 08:00:00 Jan 13 03:00 am Jan 13 12:00 am
507.00 01/13/2019 01:59:28 Jan 12 08:59 pm Jan 12 5:59 pm
424.00 01/12/2019 22:58:08 Jan 12 05:58 pm Jan 12 2:58 pm
453.00 01/12/2019 19:58:56 Jan 12 02:58 pm Jan 12 11:58 am
523.00 01/12/2019 16:59:44 Jan 12 11:59 am Jan 12 8:59 am
435.00 01/12/2019 13:58:24 Jan 12 08:58 am Jan 12 5:58 am
574.00 01/12/2019 10:59:12 Jan 12 05:59 am Jan 12 2:59 am
457.00 01/12/2019 08:00:00 Jan 12 03:00 am Jan 12 12:00 am
547.00 01/12/2019 01:59:28 Jan 11 08:59 pm Jan 11 5:59 pm
198.00 01/11/2019 22:58:08 Jan 11 05:58 pm Jan 11 2:58 pm
650.00 01/11/2019 19:58:56 Jan 11 02:58 pm Jan 11 11:58 am
598.00 01/11/2019 18:59:12 Jan 11 01:59 pm Jan 11 10:59 am
726.00 01/11/2019 16:00:00 Jan 11 11:00 am Jan 11 8:00 am
584.00 01/11/2019 11:58:56 Jan 11 06:58 am Jan 11 3:58 am
728.00 01/11/2019 09:59:28 Jan 11 04:59 am Jan 11 1:59 am
567.00 01/11/2019 00:00:00 Jan 10 07:00 pm Jan 10 4:00 pm
617.00 01/10/2019 22:58:08 Jan 10 05:58 pm Jan 10 2:58 pm
642.00 01/10/2019 19:58:56 Jan 10 02:58 pm Jan 10 11:58 am
699.00 01/10/2019 16:59:44 Jan 10 11:59 am Jan 10 8:59 am
588.00 01/10/2019 13:58:24 Jan 10 08:58 am Jan 10 5:58 am
615.00 01/10/2019 11:58:56 Jan 10 06:58 am Jan 10 3:58 am
811.00 01/10/2019 08:59:44 Jan 10 03:59 am Jan 10 12:59 am
529.00 01/10/2019 00:00:00 Jan 9 07:00 pm Jan 9 4:00 pm
522.00 01/09/2019 21:58:24 Jan 9 04:58 pm Jan 9 1:58 pm
525.00 01/09/2019 19:58:56 Jan 9 02:58 pm Jan 9 11:58 am
634.00 01/09/2019 18:59:12 Jan 9 01:59 pm Jan 9 10:59 am
589.00 01/09/2019 16:00:00 Jan 9 11:00 am Jan 9 8:00 am
476.00 01/09/2019 12:58:40 Jan 9 07:58 am Jan 9 4:58 am
466.00 01/09/2019 09:59:28 Jan 9 04:59 am Jan 9 1:59 am
23.00 01/09/2019 00:00:00 Jan 8 07:00 pm Jan 8 4:00 pm
455.00 01/08/2019 20:58:40 Jan 8 03:58 pm Jan 8 12:58 pm
575.00 01/08/2019 19:58:56 Jan 8 02:58 pm Jan 8 11:58 am
553.00 01/08/2019 17:59:28 Jan 8 12:59 pm Jan 8 9:59 am
652.00 01/08/2019 14:58:08 Jan 8 09:58 am Jan 8 6:58 am
457.00 01/08/2019 10:59:12 Jan 8 05:59 am Jan 8 2:59 am
450.00 01/08/2019 09:59:28 Jan 8 04:59 am Jan 8 1:59 am
36.00 01/08/2019 00:59:44 Jan 7 07:59 pm Jan 7 4:59 pm
431.00 01/07/2019 21:58:24 Jan 7 04:58 pm Jan 7 1:58 pm
420.00 01/07/2019 19:58:56 Jan 7 02:58 pm Jan 7 11:58 am
533.00 01/07/2019 18:59:12 Jan 7 01:59 pm Jan 7 10:59 am
535.00 01/07/2019 16:00:00 Jan 7 11:00 am Jan 7 8:00 am
414.00 01/07/2019 12:58:40 Jan 7 07:58 am Jan 7 4:58 am
454.00 01/07/2019 09:59:28 Jan 7 04:59 am Jan 7 1:59 am
438.00 01/07/2019 01:59:28 Jan 6 08:59 pm Jan 6 5:59 pm
133.00 01/06/2019 22:58:08 Jan 6 05:58 pm Jan 6 2:58 pm
532.00 01/06/2019 19:58:56 Jan 6 02:58 pm Jan 6 11:58 am
417.00 01/06/2019 16:00:00 Jan 6 11:00 am Jan 6 8:00 am
189.00 01/06/2019 12:58:40 Jan 6 07:58 am Jan 6 4:58 am
468.00 01/06/2019 09:59:28 Jan 6 04:59 am Jan 6 1:59 am
435.00 01/06/2019 08:00:00 Jan 6 03:00 am Jan 6 12:00 am
503.00 01/06/2019 01:59:28 Jan 5 08:59 pm Jan 5 5:59 pm
419.00 01/05/2019 21:58:24 Jan 5 04:58 pm Jan 5 1:58 pm
406.00 01/05/2019 20:58:40 Jan 5 03:58 pm Jan 5 12:58 pm
400.00 01/05/2019 19:58:56 Jan 5 02:58 pm Jan 5 11:58 am
532.00 01/05/2019 17:59:28 Jan 5 12:59 pm Jan 5 9:59 am
528.00 01/05/2019 14:58:08 Jan 5 09:58 am Jan 5 6:58 am
449.00 01/05/2019 12:58:40 Jan 5 07:58 am Jan 5 4:58 am
435.00 01/05/2019 09:59:28 Jan 5 04:59 am Jan 5 1:59 am
449.00 01/05/2019 08:00:00 Jan 5 03:00 am Jan 5 12:00 am
89.00 01/05/2019 00:59:44 Jan 4 07:59 pm Jan 4 4:59 pm
438.00 01/04/2019 21:58:24 Jan 4 04:58 pm Jan 4 1:58 pm
440.00 01/04/2019 19:58:56 Jan 4 02:58 pm Jan 4 11:58 am
562.00 01/04/2019 18:59:12 Jan 4 01:59 pm Jan 4 10:59 am
412.00 01/04/2019 14:58:08 Jan 4 09:58 am Jan 4 6:58 am
438.00 01/04/2019 11:58:56 Jan 4 06:58 am Jan 4 3:58 am
472.00 01/04/2019 08:59:44 Jan 4 03:59 am Jan 4 12:59 am
551.00 01/04/2019 02:59:12 Jan 3 09:59 pm Jan 3 6:59 pm
424.00 01/03/2019 22:58:08 Jan 3 05:58 pm Jan 3 2:58 pm
407.00 01/03/2019 20:58:40 Jan 3 03:58 pm Jan 3 12:58 pm
420.00 01/03/2019 19:58:56 Jan 3 02:58 pm Jan 3 11:58 am
555.00 01/03/2019 17:59:28 Jan 3 12:59 pm Jan 3 9:59 am
421.00 01/03/2019 13:58:24 Jan 3 08:58 am Jan 3 5:58 am
423.00 01/03/2019 10:59:12 Jan 3 05:59 am Jan 3 2:59 am
435.00 01/03/2019 08:59:44 Jan 3 03:59 am Jan 3 12:59 am
434.00 01/03/2019 00:00:00 Jan 2 07:00 pm Jan 2 4:00 pm
453.00 01/02/2019 22:58:08 Jan 2 05:58 pm Jan 2 2:58 pm
411.00 01/02/2019 20:58:40 Jan 2 03:58 pm Jan 2 12:58 pm
420.00 01/02/2019 19:58:56 Jan 2 02:58 pm Jan 2 11:58 am
546.00 01/02/2019 17:59:28 Jan 2 12:59 pm Jan 2 9:59 am
456.00 01/02/2019 16:00:00 Jan 2 11:00 am Jan 2 8:00 am
99.00 01/02/2019 12:58:40 Jan 2 07:58 am Jan 2 4:58 am
402.00 01/02/2019 10:59:12 Jan 2 05:59 am Jan 2 2:59 am
447.00 01/02/2019 08:59:44 Jan 2 03:59 am Jan 2 12:59 am
568.00 01/02/2019 02:59:12 Jan 1 09:59 pm Jan 1 6:59 pm
228.00 01/02/2019 00:00:00 Jan 1 07:00 pm Jan 1 4:00 pm
404.00 01/01/2019 21:58:24 Jan 1 04:58 pm Jan 1 1:58 pm
390.00 01/01/2019 19:58:56 Jan 1 02:58 pm Jan 1 11:58 am
429.00 01/01/2019 18:59:12 Jan 1 01:59 pm Jan 1 10:59 am
555.00 01/01/2019 16:59:44 Jan 1 11:59 am Jan 1 8:59 am
584.00 01/01/2019 02:59:12 Dec 31 09:59 pm Dec 31 6:59 pm
487.00 12/31/2018 22:58:08 Dec 31 05:58 pm Dec 31 2:58 pm
491.00 12/31/2018 20:58:40 Dec 31 03:58 pm Dec 31 12:58 pm
470.00 12/31/2018 19:58:56 Dec 31 02:58 pm Dec 31 11:58 am
550.00 12/31/2018 17:59:28 Dec 31 12:59 pm Dec 31 9:59 am
60.00 12/31/2018 13:58:24 Dec 31 08:58 am Dec 31 5:58 am
508.00 12/31/2018 09:59:28 Dec 31 04:59 am Dec 31 1:59 am
469.00 12/31/2018 00:00:00 Dec 30 07:00 pm Dec 30 4:00 pm
493.00 12/30/2018 22:58:08 Dec 30 05:58 pm Dec 30 2:58 pm
474.00 12/30/2018 19:58:56 Dec 30 02:58 pm Dec 30 11:58 am
513.00 12/30/2018 17:59:28 Dec 30 12:59 pm Dec 30 9:59 am
443.00 12/30/2018 14:58:08 Dec 30 09:58 am Dec 30 6:58 am
236.00 12/30/2018 12:58:40 Dec 30 07:58 am Dec 30 4:58 am
587.00 12/30/2018 09:59:28 Dec 30 04:59 am Dec 30 1:59 am
346.00 12/30/2018 00:59:44 Dec 29 07:59 pm Dec 29 4:59 pm
485.00 12/29/2018 20:58:40 Dec 29 03:58 pm Dec 29 12:58 pm
500.00 12/29/2018 19:58:56 Dec 29 02:58 pm Dec 29 11:58 am
555.00 12/29/2018 17:59:28 Dec 29 12:59 pm Dec 29 9:59 am
475.00 12/29/2018 14:58:08 Dec 29 09:58 am Dec 29 6:58 am
495.00 12/29/2018 12:58:40 Dec 29 07:58 am Dec 29 4:58 am
223.00 12/29/2018 10:59:12 Dec 29 05:59 am Dec 29 2:59 am
705.00 12/29/2018 03:58:56 Dec 28 10:58 pm Dec 28 7:58 pm
342.00 12/29/2018 01:59:28 Dec 28 08:59 pm Dec 28 5:59 pm
534.00 12/28/2018 22:58:08 Dec 28 05:58 pm Dec 28 2:58 pm
535.00 12/28/2018 20:58:40 Dec 28 03:58 pm Dec 28 12:58 pm
550.00 12/28/2018 19:58:56 Dec 28 02:58 pm Dec 28 11:58 am
674.00 12/28/2018 18:59:12 Dec 28 01:59 pm Dec 28 10:59 am
652.00 12/28/2018 16:00:00 Dec 28 11:00 am Dec 28 8:00 am
537.00 12/28/2018 13:58:24 Dec 28 08:58 am Dec 28 5:58 am
527.00 12/28/2018 11:58:56 Dec 28 06:58 am Dec 28 3:58 am
541.00 12/28/2018 09:59:28 Dec 28 04:59 am Dec 28 1:59 am
656.00 12/28/2018 08:00:00 Dec 28 03:00 am Dec 28 12:00 am
744.00 12/28/2018 02:59:12 Dec 27 09:59 pm Dec 27 6:59 pm
550.00 12/28/2018 00:59:44 Dec 27 07:59 pm Dec 27 4:59 pm
573.00 12/27/2018 21:58:24 Dec 27 04:58 pm Dec 27 1:58 pm
615.00 12/27/2018 19:58:56 Dec 27 02:58 pm Dec 27 11:58 am
698.00 12/27/2018 17:59:28 Dec 27 12:59 pm Dec 27 9:59 am
740.00 12/27/2018 14:58:08 Dec 27 09:58 am Dec 27 6:58 am
602.00 12/27/2018 12:58:40 Dec 27 07:58 am Dec 27 4:58 am
619.00 12/27/2018 09:59:28 Dec 27 04:59 am Dec 27 1:59 am
739.00 12/27/2018 08:00:00 Dec 27 03:00 am Dec 27 12:00 am
957.00 12/27/2018 02:59:12 Dec 26 09:59 pm Dec 26 6:59 pm
308.00 12/27/2018 00:59:44 Dec 26 07:59 pm Dec 26 4:59 pm
652.00 12/26/2018 21:58:24 Dec 26 04:58 pm Dec 26 1:58 pm
733.00 12/26/2018 19:58:56 Dec 26 02:58 pm Dec 26 11:58 am
648.00 12/26/2018 16:59:44 Dec 26 11:59 am Dec 26 8:59 am
649.00 12/26/2018 13:58:24 Dec 26 08:58 am Dec 26 5:58 am
676.00 12/26/2018 11:58:56 Dec 26 06:58 am Dec 26 3:58 am
683.00 12/26/2018 09:59:28 Dec 26 04:59 am Dec 26 1:59 am
760.00 12/26/2018 02:59:12 Dec 25 09:59 pm Dec 25 6:59 pm
306.00 12/26/2018 00:59:44 Dec 25 07:59 pm Dec 25 4:59 pm
719.00 12/25/2018 22:58:08 Dec 25 05:58 pm Dec 25 2:58 pm
758.00 12/25/2018 20:58:40 Dec 25 03:58 pm Dec 25 12:58 pm
750.00 12/25/2018 19:58:56 Dec 25 02:58 pm Dec 25 11:58 am
773.00 12/25/2018 18:59:12 Dec 25 01:59 pm Dec 25 10:59 am
766.00 12/25/2018 16:59:44 Dec 25 11:59 am Dec 25 8:59 am
708.00 12/25/2018 13:58:24 Dec 25 08:58 am Dec 25 5:58 am
670.00 12/25/2018 11:58:56 Dec 25 06:58 am Dec 25 3:58 am
664.00 12/25/2018 09:59:28 Dec 25 04:59 am Dec 25 1:59 am
229.00 12/25/2018 08:00:00 Dec 25 03:00 am Dec 25 12:00 am
695.00 12/25/2018 03:58:56 Dec 24 10:58 pm Dec 24 7:58 pm
471.00 12/25/2018 00:59:44 Dec 24 07:59 pm Dec 24 4:59 pm
239.00 12/24/2018 22:58:08 Dec 24 05:58 pm Dec 24 2:58 pm
478.00 12/24/2018 20:58:40 Dec 24 03:58 pm Dec 24 12:58 pm
480.00 12/24/2018 19:58:56 Dec 24 02:58 pm Dec 24 11:58 am
563.00 12/24/2018 18:59:12 Dec 24 01:59 pm Dec 24 10:59 am
457.00 12/24/2018 16:00:00 Dec 24 11:00 am Dec 24 8:00 am
469.00 12/24/2018 12:58:40 Dec 24 07:58 am Dec 24 4:58 am
476.00 12/24/2018 10:59:12 Dec 24 05:59 am Dec 24 2:59 am
479.00 12/24/2018 08:59:44 Dec 24 03:59 am Dec 24 12:59 am
460.00 12/24/2018 02:59:12 Dec 23 09:59 pm Dec 23 6:59 pm
232.00 12/24/2018 00:00:00 Dec 23 07:00 pm Dec 23 4:00 pm
470.00 12/23/2018 21:58:24 Dec 23 04:58 pm Dec 23 1:58 pm
471.00 12/23/2018 19:58:56 Dec 23 02:58 pm Dec 23 11:58 am
558.00 12/23/2018 17:59:28 Dec 23 12:59 pm Dec 23 9:59 am
439.00 12/23/2018 16:00:00 Dec 23 11:00 am Dec 23 8:00 am
250.00 12/23/2018 13:58:24 Dec 23 08:58 am Dec 23 5:58 am
472.00 12/23/2018 11:58:56 Dec 23 06:58 am Dec 23 3:58 am
451.00 12/23/2018 08:59:44 Dec 23 03:59 am Dec 23 12:59 am
455.00 12/23/2018 02:59:12 Dec 22 09:59 pm Dec 22 6:59 pm
71.00 12/23/2018 01:59:28 Dec 22 08:59 pm Dec 22 5:59 pm
447.00 12/23/2018 00:00:00 Dec 22 07:00 pm Dec 22 4:00 pm
590.00 12/22/2018 21:58:24 Dec 22 04:58 pm Dec 22 1:58 pm
467.00 12/22/2018 19:58:56 Dec 22 02:58 pm Dec 22 11:58 am
474.00 12/22/2018 17:59:28 Dec 22 12:59 pm Dec 22 9:59 am
559.00 12/22/2018 16:00:00 Dec 22 11:00 am Dec 22 8:00 am
447.00 12/22/2018 13:58:24 Dec 22 08:58 am Dec 22 5:58 am
457.00 12/22/2018 11:58:56 Dec 22 06:58 am Dec 22 3:58 am
490.00 12/22/2018 09:59:28 Dec 22 04:59 am Dec 22 1:59 am
160.00 12/22/2018 08:00:00 Dec 22 03:00 am Dec 22 12:00 am
484.00 12/22/2018 02:59:12 Dec 21 09:59 pm Dec 21 6:59 pm
497.00 12/22/2018 01:59:28 Dec 21 08:59 pm Dec 21 5:59 pm
545.00 12/22/2018 00:00:00 Dec 21 07:00 pm Dec 21 4:00 pm
246.00 12/21/2018 22:58:08 Dec 21 05:58 pm Dec 21 2:58 pm
473.00 12/21/2018 20:58:40 Dec 21 03:58 pm Dec 21 12:58 pm
474.00 12/21/2018 19:58:56 Dec 21 02:58 pm Dec 21 11:58 am
506.00 12/21/2018 17:59:28 Dec 21 12:59 pm Dec 21 9:59 am
469.00 12/21/2018 16:00:00 Dec 21 11:00 am Dec 21 8:00 am
207.00 12/21/2018 14:58:08 Dec 21 09:58 am Dec 21 6:58 am
100.00 12/21/2018 12:58:40 Dec 21 07:58 am Dec 21 4:58 am
453.00 12/21/2018 10:59:12 Dec 21 05:59 am Dec 21 2:59 am
433.00 12/21/2018 08:59:44 Dec 21 03:59 am Dec 21 12:59 am
671.00 12/21/2018 08:00:00 Dec 21 03:00 am Dec 21 12:00 am

Status

Gauge History

Times listed in GMT 24h, ET and PT hours provided for convenience Graphs in GMT. Readings of "n/a" constitute a frozen gauge or gauge error.
Reading Updated (GMT) Eastern Pacific Comment
running 01/20/2019 03:58:56 Jan 19 10:58 pm Jan 19 7:58 pm
running 01/20/2019 02:59:12 Jan 19 09:59 pm Jan 19 6:59 pm
running 01/20/2019 01:59:28 Jan 19 08:59 pm Jan 19 5:59 pm
running 01/20/2019 00:59:44 Jan 19 07:59 pm Jan 19 4:59 pm
running 01/20/2019 00:00:00 Jan 19 07:00 pm Jan 19 4:00 pm
running 01/19/2019 22:58:08 Jan 19 05:58 pm Jan 19 2:58 pm
running 01/19/2019 21:58:24 Jan 19 04:58 pm Jan 19 1:58 pm
running 01/19/2019 20:58:40 Jan 19 03:58 pm Jan 19 12:58 pm
running 01/19/2019 19:58:56 Jan 19 02:58 pm Jan 19 11:58 am
running 01/19/2019 18:59:12 Jan 19 01:59 pm Jan 19 10:59 am
running 01/19/2019 17:59:28 Jan 19 12:59 pm Jan 19 9:59 am
running 01/19/2019 16:59:44 Jan 19 11:59 am Jan 19 8:59 am
running 01/19/2019 13:58:24 Jan 19 08:58 am Jan 19 5:58 am
running 01/19/2019 12:58:40 Jan 19 07:58 am Jan 19 4:58 am
running 01/19/2019 11:58:56 Jan 19 06:58 am Jan 19 3:58 am
running 01/19/2019 10:59:12 Jan 19 05:59 am Jan 19 2:59 am
running 01/19/2019 09:59:28 Jan 19 04:59 am Jan 19 1:59 am
running 01/19/2019 08:00:00 Jan 19 03:00 am Jan 19 12:00 am
running 01/18/2019 20:58:40 Jan 18 03:58 pm Jan 18 12:58 pm
running 01/18/2019 16:00:00 Jan 18 11:00 am Jan 18 8:00 am
running 01/18/2019 14:58:08 Jan 18 09:58 am Jan 18 6:58 am
running 01/18/2019 13:58:24 Jan 18 08:58 am Jan 18 5:58 am
running 01/18/2019 12:58:40 Jan 18 07:58 am Jan 18 4:58 am
running 01/18/2019 11:58:56 Jan 18 06:58 am Jan 18 3:58 am
running 01/18/2019 10:59:12 Jan 18 05:59 am Jan 18 2:59 am
running 01/18/2019 08:59:44 Jan 18 03:59 am Jan 18 12:59 am
running 01/18/2019 04:58:40 Jan 17 11:58 pm Jan 17 8:58 pm
running 01/18/2019 03:58:56 Jan 17 10:58 pm Jan 17 7:58 pm
running 01/18/2019 01:59:28 Jan 17 08:59 pm Jan 17 5:59 pm
running 01/18/2019 00:59:44 Jan 17 07:59 pm Jan 17 4:59 pm
running 01/18/2019 00:00:00 Jan 17 07:00 pm Jan 17 4:00 pm
running 01/17/2019 22:58:08 Jan 17 05:58 pm Jan 17 2:58 pm
running 01/17/2019 21:58:24 Jan 17 04:58 pm Jan 17 1:58 pm
running 01/17/2019 20:58:40 Jan 17 03:58 pm Jan 17 12:58 pm
running 01/17/2019 19:58:56 Jan 17 02:58 pm Jan 17 11:58 am
running 01/17/2019 18:59:12 Jan 17 01:59 pm Jan 17 10:59 am
running 01/17/2019 17:59:28 Jan 17 12:59 pm Jan 17 9:59 am
running 01/17/2019 16:59:44 Jan 17 11:59 am Jan 17 8:59 am
running 01/17/2019 16:00:00 Jan 17 11:00 am Jan 17 8:00 am
running 01/17/2019 14:58:08 Jan 17 09:58 am Jan 17 6:58 am
too low 01/17/2019 13:58:24 Jan 17 08:58 am Jan 17 5:58 am
running 01/17/2019 12:58:40 Jan 17 07:58 am Jan 17 4:58 am
too low 01/17/2019 11:58:56 Jan 17 06:58 am Jan 17 3:58 am
running 01/17/2019 10:59:12 Jan 17 05:59 am Jan 17 2:59 am
running 01/17/2019 09:59:28 Jan 17 04:59 am Jan 17 1:59 am
running 01/17/2019 08:59:44 Jan 17 03:59 am Jan 17 12:59 am
too low 01/17/2019 04:58:40 Jan 16 11:58 pm Jan 16 8:58 pm
too low 01/17/2019 03:58:56 Jan 16 10:58 pm Jan 16 7:58 pm
too low 01/17/2019 02:59:12 Jan 16 09:59 pm Jan 16 6:59 pm
too low 01/17/2019 01:59:28 Jan 16 08:59 pm Jan 16 5:59 pm
too low 01/17/2019 00:59:44 Jan 16 07:59 pm Jan 16 4:59 pm
too low 01/17/2019 00:00:00 Jan 16 07:00 pm Jan 16 4:00 pm
too low 01/16/2019 22:58:08 Jan 16 05:58 pm Jan 16 2:58 pm
too low 01/16/2019 21:58:24 Jan 16 04:58 pm Jan 16 1:58 pm
too low 01/16/2019 20:58:40 Jan 16 03:58 pm Jan 16 12:58 pm
too low 01/16/2019 19:58:56 Jan 16 02:58 pm Jan 16 11:58 am
running 01/16/2019 18:59:12 Jan 16 01:59 pm Jan 16 10:59 am
too low 01/16/2019 17:59:28 Jan 16 12:59 pm Jan 16 9:59 am
too low 01/16/2019 16:59:44 Jan 16 11:59 am Jan 16 8:59 am
too low 01/16/2019 16:00:00 Jan 16 11:00 am Jan 16 8:00 am
too low 01/15/2019 19:58:56 Jan 15 02:58 pm Jan 15 11:58 am
too low 01/15/2019 12:58:40 Jan 15 07:58 am Jan 15 4:58 am
too low 01/15/2019 10:59:12 Jan 15 05:59 am Jan 15 2:59 am
too low 01/15/2019 08:00:00 Jan 15 03:00 am Jan 15 12:00 am
too low 01/15/2019 00:00:00 Jan 14 07:00 pm Jan 14 4:00 pm
too low 01/14/2019 21:58:24 Jan 14 04:58 pm Jan 14 1:58 pm
too low 01/14/2019 18:59:12 Jan 14 01:59 pm Jan 14 10:59 am
too low 01/14/2019 12:58:40 Jan 14 07:58 am Jan 14 4:58 am
too low 01/14/2019 09:59:28 Jan 14 04:59 am Jan 14 1:59 am
too low 01/14/2019 00:59:44 Jan 13 07:59 pm Jan 13 4:59 pm
too low 01/13/2019 21:58:24 Jan 13 04:58 pm Jan 13 1:58 pm
too low 01/13/2019 18:59:12 Jan 13 01:59 pm Jan 13 10:59 am
too low 01/13/2019 16:00:00 Jan 13 11:00 am Jan 13 8:00 am
too low 01/13/2019 12:58:40 Jan 13 07:58 am Jan 13 4:58 am
too low 01/13/2019 10:59:12 Jan 13 05:59 am Jan 13 2:59 am
too low 01/13/2019 08:00:00 Jan 13 03:00 am Jan 13 12:00 am
too low 01/13/2019 01:59:28 Jan 12 08:59 pm Jan 12 5:59 pm
too low 01/12/2019 22:58:08 Jan 12 05:58 pm Jan 12 2:58 pm
too low 01/12/2019 19:58:56 Jan 12 02:58 pm Jan 12 11:58 am
too low 01/12/2019 16:59:44 Jan 12 11:59 am Jan 12 8:59 am
too low 01/12/2019 13:58:24 Jan 12 08:58 am Jan 12 5:58 am
too low 01/12/2019 10:59:12 Jan 12 05:59 am Jan 12 2:59 am
too low 01/12/2019 08:00:00 Jan 12 03:00 am Jan 12 12:00 am
too low 01/12/2019 01:59:28 Jan 11 08:59 pm Jan 11 5:59 pm
too low 01/11/2019 22:58:08 Jan 11 05:58 pm Jan 11 2:58 pm
running 01/11/2019 19:58:56 Jan 11 02:58 pm Jan 11 11:58 am
too low 01/11/2019 18:59:12 Jan 11 01:59 pm Jan 11 10:59 am
running 01/11/2019 16:00:00 Jan 11 11:00 am Jan 11 8:00 am
too low 01/11/2019 11:58:56 Jan 11 06:58 am Jan 11 3:58 am
running 01/11/2019 09:59:28 Jan 11 04:59 am Jan 11 1:59 am
too low 01/11/2019 00:00:00 Jan 10 07:00 pm Jan 10 4:00 pm
running 01/10/2019 22:58:08 Jan 10 05:58 pm Jan 10 2:58 pm
running 01/10/2019 19:58:56 Jan 10 02:58 pm Jan 10 11:58 am
running 01/10/2019 16:59:44 Jan 10 11:59 am Jan 10 8:59 am
too low 01/10/2019 13:58:24 Jan 10 08:58 am Jan 10 5:58 am
running 01/10/2019 11:58:56 Jan 10 06:58 am Jan 10 3:58 am
running 01/10/2019 08:59:44 Jan 10 03:59 am Jan 10 12:59 am
too low 01/10/2019 00:00:00 Jan 9 07:00 pm Jan 9 4:00 pm
too low 01/09/2019 21:58:24 Jan 9 04:58 pm Jan 9 1:58 pm
running 01/09/2019 18:59:12 Jan 9 01:59 pm Jan 9 10:59 am
too low 01/09/2019 16:00:00 Jan 9 11:00 am Jan 9 8:00 am
too low 01/09/2019 12:58:40 Jan 9 07:58 am Jan 9 4:58 am
too low 01/09/2019 09:59:28 Jan 9 04:59 am Jan 9 1:59 am
too low 01/09/2019 00:00:00 Jan 8 07:00 pm Jan 8 4:00 pm
too low 01/08/2019 20:58:40 Jan 8 03:58 pm Jan 8 12:58 pm
too low 01/08/2019 17:59:28 Jan 8 12:59 pm Jan 8 9:59 am
running 01/08/2019 14:58:08 Jan 8 09:58 am Jan 8 6:58 am
too low 01/08/2019 10:59:12 Jan 8 05:59 am Jan 8 2:59 am
too low 01/08/2019 09:59:28 Jan 8 04:59 am Jan 8 1:59 am
too low 01/08/2019 00:59:44 Jan 7 07:59 pm Jan 7 4:59 pm
too low 01/07/2019 21:58:24 Jan 7 04:58 pm Jan 7 1:58 pm
too low 01/07/2019 18:59:12 Jan 7 01:59 pm Jan 7 10:59 am
too low 01/07/2019 16:00:00 Jan 7 11:00 am Jan 7 8:00 am
too low 01/07/2019 12:58:40 Jan 7 07:58 am Jan 7 4:58 am
too low 01/07/2019 09:59:28 Jan 7 04:59 am Jan 7 1:59 am
too low 01/07/2019 01:59:28 Jan 6 08:59 pm Jan 6 5:59 pm
too low 01/06/2019 22:58:08 Jan 6 05:58 pm Jan 6 2:58 pm
too low 01/06/2019 19:58:56 Jan 6 02:58 pm Jan 6 11:58 am
too low 01/06/2019 16:00:00 Jan 6 11:00 am Jan 6 8:00 am
too low 01/06/2019 12:58:40 Jan 6 07:58 am Jan 6 4:58 am
too low 01/06/2019 09:59:28 Jan 6 04:59 am Jan 6 1:59 am
too low 01/06/2019 08:00:00 Jan 6 03:00 am Jan 6 12:00 am
too low 01/06/2019 01:59:28 Jan 5 08:59 pm Jan 5 5:59 pm
too low 01/05/2019 21:58:24 Jan 5 04:58 pm Jan 5 1:58 pm
too low 01/05/2019 20:58:40 Jan 5 03:58 pm Jan 5 12:58 pm
too low 01/05/2019 17:59:28 Jan 5 12:59 pm Jan 5 9:59 am
too low 01/05/2019 14:58:08 Jan 5 09:58 am Jan 5 6:58 am
too low 01/05/2019 12:58:40 Jan 5 07:58 am Jan 5 4:58 am
too low 01/05/2019 09:59:28 Jan 5 04:59 am Jan 5 1:59 am
too low 01/05/2019 08:00:00 Jan 5 03:00 am Jan 5 12:00 am
too low 01/04/2019 21:58:24 Jan 4 04:58 pm Jan 4 1:58 pm
too low 01/04/2019 18:59:12 Jan 4 01:59 pm Jan 4 10:59 am
too low 01/04/2019 14:58:08 Jan 4 09:58 am Jan 4 6:58 am
too low 01/04/2019 11:58:56 Jan 4 06:58 am Jan 4 3:58 am
too low 01/04/2019 08:59:44 Jan 4 03:59 am Jan 4 12:59 am
too low 01/04/2019 02:59:12 Jan 3 09:59 pm Jan 3 6:59 pm
too low 01/03/2019 22:58:08 Jan 3 05:58 pm Jan 3 2:58 pm
too low 01/03/2019 20:58:40 Jan 3 03:58 pm Jan 3 12:58 pm
too low 01/03/2019 17:59:28 Jan 3 12:59 pm Jan 3 9:59 am
too low 01/03/2019 13:58:24 Jan 3 08:58 am Jan 3 5:58 am
too low 01/03/2019 10:59:12 Jan 3 05:59 am Jan 3 2:59 am
too low 01/03/2019 08:59:44 Jan 3 03:59 am Jan 3 12:59 am
too low 01/03/2019 00:00:00 Jan 2 07:00 pm Jan 2 4:00 pm
too low 01/02/2019 22:58:08 Jan 2 05:58 pm Jan 2 2:58 pm
too low 01/02/2019 20:58:40 Jan 2 03:58 pm Jan 2 12:58 pm
too low 01/02/2019 17:59:28 Jan 2 12:59 pm Jan 2 9:59 am
too low 01/02/2019 16:00:00 Jan 2 11:00 am Jan 2 8:00 am
too low 01/02/2019 12:58:40 Jan 2 07:58 am Jan 2 4:58 am
too low 01/02/2019 10:59:12 Jan 2 05:59 am Jan 2 2:59 am
too low 01/02/2019 08:59:44 Jan 2 03:59 am Jan 2 12:59 am
too low 01/02/2019 02:59:12 Jan 1 09:59 pm Jan 1 6:59 pm
too low 01/02/2019 00:00:00 Jan 1 07:00 pm Jan 1 4:00 pm
too low 01/01/2019 21:58:24 Jan 1 04:58 pm Jan 1 1:58 pm
too low 01/01/2019 18:59:12 Jan 1 01:59 pm Jan 1 10:59 am
too low 01/01/2019 16:59:44 Jan 1 11:59 am Jan 1 8:59 am
too low 01/01/2019 02:59:12 Dec 31 09:59 pm Dec 31 6:59 pm
too low 12/31/2018 22:58:08 Dec 31 05:58 pm Dec 31 2:58 pm
too low 12/31/2018 20:58:40 Dec 31 03:58 pm Dec 31 12:58 pm
too low 12/31/2018 19:58:56 Dec 31 02:58 pm Dec 31 11:58 am
too low 12/31/2018 17:59:28 Dec 31 12:59 pm Dec 31 9:59 am
too low 12/31/2018 13:58:24 Dec 31 08:58 am Dec 31 5:58 am
too low 12/31/2018 09:59:28 Dec 31 04:59 am Dec 31 1:59 am
too low 12/31/2018 00:00:00 Dec 30 07:00 pm Dec 30 4:00 pm
too low 12/30/2018 22:58:08 Dec 30 05:58 pm Dec 30 2:58 pm
too low 12/30/2018 19:58:56 Dec 30 02:58 pm Dec 30 11:58 am
too low 12/30/2018 17:59:28 Dec 30 12:59 pm Dec 30 9:59 am
too low 12/30/2018 14:58:08 Dec 30 09:58 am Dec 30 6:58 am
too low 12/30/2018 12:58:40 Dec 30 07:58 am Dec 30 4:58 am
too low 12/30/2018 09:59:28 Dec 30 04:59 am Dec 30 1:59 am
too low 12/30/2018 00:59:44 Dec 29 07:59 pm Dec 29 4:59 pm
too low 12/29/2018 20:58:40 Dec 29 03:58 pm Dec 29 12:58 pm
too low 12/29/2018 17:59:28 Dec 29 12:59 pm Dec 29 9:59 am
too low 12/29/2018 14:58:08 Dec 29 09:58 am Dec 29 6:58 am
too low 12/29/2018 12:58:40 Dec 29 07:58 am Dec 29 4:58 am
too low 12/29/2018 10:59:12 Dec 29 05:59 am Dec 29 2:59 am
running 12/29/2018 03:58:56 Dec 28 10:58 pm Dec 28 7:58 pm
too low 12/29/2018 01:59:28 Dec 28 08:59 pm Dec 28 5:59 pm
too low 12/28/2018 22:58:08 Dec 28 05:58 pm Dec 28 2:58 pm
too low 12/28/2018 20:58:40 Dec 28 03:58 pm Dec 28 12:58 pm
too low 12/28/2018 19:58:56 Dec 28 02:58 pm Dec 28 11:58 am
running 12/28/2018 18:59:12 Dec 28 01:59 pm Dec 28 10:59 am
running 12/28/2018 16:00:00 Dec 28 11:00 am Dec 28 8:00 am
too low 12/28/2018 13:58:24 Dec 28 08:58 am Dec 28 5:58 am
too low 12/28/2018 11:58:56 Dec 28 06:58 am Dec 28 3:58 am
too low 12/28/2018 09:59:28 Dec 28 04:59 am Dec 28 1:59 am
running 12/28/2018 08:00:00 Dec 28 03:00 am Dec 28 12:00 am
running 12/28/2018 02:59:12 Dec 27 09:59 pm Dec 27 6:59 pm
too low 12/28/2018 00:59:44 Dec 27 07:59 pm Dec 27 4:59 pm
too low 12/27/2018 21:58:24 Dec 27 04:58 pm Dec 27 1:58 pm
running 12/27/2018 19:58:56 Dec 27 02:58 pm Dec 27 11:58 am
running 12/27/2018 17:59:28 Dec 27 12:59 pm Dec 27 9:59 am
running 12/27/2018 14:58:08 Dec 27 09:58 am Dec 27 6:58 am
running 12/27/2018 12:58:40 Dec 27 07:58 am Dec 27 4:58 am
running 12/27/2018 09:59:28 Dec 27 04:59 am Dec 27 1:59 am
running 12/27/2018 08:00:00 Dec 27 03:00 am Dec 27 12:00 am
running 12/27/2018 02:59:12 Dec 26 09:59 pm Dec 26 6:59 pm
too low 12/27/2018 00:59:44 Dec 26 07:59 pm Dec 26 4:59 pm
running 12/26/2018 21:58:24 Dec 26 04:58 pm Dec 26 1:58 pm
running 12/26/2018 19:58:56 Dec 26 02:58 pm Dec 26 11:58 am
running 12/26/2018 16:59:44 Dec 26 11:59 am Dec 26 8:59 am
running 12/26/2018 13:58:24 Dec 26 08:58 am Dec 26 5:58 am
running 12/26/2018 11:58:56 Dec 26 06:58 am Dec 26 3:58 am
running 12/26/2018 09:59:28 Dec 26 04:59 am Dec 26 1:59 am
running 12/26/2018 02:59:12 Dec 25 09:59 pm Dec 25 6:59 pm
too low 12/26/2018 00:59:44 Dec 25 07:59 pm Dec 25 4:59 pm
running 12/25/2018 22:58:08 Dec 25 05:58 pm Dec 25 2:58 pm
running 12/25/2018 20:58:40 Dec 25 03:58 pm Dec 25 12:58 pm
running 12/25/2018 19:58:56 Dec 25 02:58 pm Dec 25 11:58 am
running 12/25/2018 18:59:12 Dec 25 01:59 pm Dec 25 10:59 am
running 12/25/2018 16:59:44 Dec 25 11:59 am Dec 25 8:59 am
running 12/25/2018 13:58:24 Dec 25 08:58 am Dec 25 5:58 am
running 12/25/2018 11:58:56 Dec 25 06:58 am Dec 25 3:58 am
running 12/25/2018 09:59:28 Dec 25 04:59 am Dec 25 1:59 am
too low 12/25/2018 08:00:00 Dec 25 03:00 am Dec 25 12:00 am
running 12/25/2018 03:58:56 Dec 24 10:58 pm Dec 24 7:58 pm
too low 12/25/2018 00:59:44 Dec 24 07:59 pm Dec 24 4:59 pm
too low 12/24/2018 22:58:08 Dec 24 05:58 pm Dec 24 2:58 pm
too low 12/24/2018 20:58:40 Dec 24 03:58 pm Dec 24 12:58 pm
too low 12/24/2018 18:59:12 Dec 24 01:59 pm Dec 24 10:59 am
too low 12/24/2018 16:00:00 Dec 24 11:00 am Dec 24 8:00 am
too low 12/24/2018 12:58:40 Dec 24 07:58 am Dec 24 4:58 am
too low 12/24/2018 10:59:12 Dec 24 05:59 am Dec 24 2:59 am
too low 12/24/2018 08:59:44 Dec 24 03:59 am Dec 24 12:59 am
too low 12/24/2018 02:59:12 Dec 23 09:59 pm Dec 23 6:59 pm
too low 12/24/2018 00:00:00 Dec 23 07:00 pm Dec 23 4:00 pm
too low 12/23/2018 21:58:24 Dec 23 04:58 pm Dec 23 1:58 pm
too low 12/23/2018 19:58:56 Dec 23 02:58 pm Dec 23 11:58 am
too low 12/23/2018 17:59:28 Dec 23 12:59 pm Dec 23 9:59 am
too low 12/23/2018 16:00:00 Dec 23 11:00 am Dec 23 8:00 am
too low 12/23/2018 13:58:24 Dec 23 08:58 am Dec 23 5:58 am
too low 12/23/2018 11:58:56 Dec 23 06:58 am Dec 23 3:58 am
too low 12/23/2018 08:59:44 Dec 23 03:59 am Dec 23 12:59 am
too low 12/23/2018 02:59:12 Dec 22 09:59 pm Dec 22 6:59 pm
too low 12/23/2018 01:59:28 Dec 22 08:59 pm Dec 22 5:59 pm
too low 12/23/2018 00:00:00 Dec 22 07:00 pm Dec 22 4:00 pm
too low 12/22/2018 21:58:24 Dec 22 04:58 pm Dec 22 1:58 pm
too low 12/22/2018 19:58:56 Dec 22 02:58 pm Dec 22 11:58 am
too low 12/22/2018 17:59:28 Dec 22 12:59 pm Dec 22 9:59 am
too low 12/22/2018 16:00:00 Dec 22 11:00 am Dec 22 8:00 am
too low 12/22/2018 13:58:24 Dec 22 08:58 am Dec 22 5:58 am
too low 12/22/2018 11:58:56 Dec 22 06:58 am Dec 22 3:58 am
too low 12/22/2018 09:59:28 Dec 22 04:59 am Dec 22 1:59 am
too low 12/22/2018 08:00:00 Dec 22 03:00 am Dec 22 12:00 am
too low 12/22/2018 02:59:12 Dec 21 09:59 pm Dec 21 6:59 pm
too low 12/22/2018 01:59:28 Dec 21 08:59 pm Dec 21 5:59 pm
too low 12/22/2018 00:00:00 Dec 21 07:00 pm Dec 21 4:00 pm
too low 12/21/2018 22:58:08 Dec 21 05:58 pm Dec 21 2:58 pm
too low 12/21/2018 20:58:40 Dec 21 03:58 pm Dec 21 12:58 pm
too low 12/21/2018 19:58:56 Dec 21 02:58 pm Dec 21 11:58 am
too low 12/21/2018 17:59:28 Dec 21 12:59 pm Dec 21 9:59 am
too low 12/21/2018 16:00:00 Dec 21 11:00 am Dec 21 8:00 am
too low 12/21/2018 14:58:08 Dec 21 09:58 am Dec 21 6:58 am
too low 12/21/2018 12:58:40 Dec 21 07:58 am Dec 21 4:58 am
too low 12/21/2018 10:59:12 Dec 21 05:59 am Dec 21 2:59 am
too low 12/21/2018 08:59:44 Dec 21 03:59 am Dec 21 12:59 am
running 12/21/2018 08:00:00 Dec 21 03:00 am Dec 21 12:00 am

Report - Reports of Related Gauges

Reports give the public a chance to report on river conditions throughout the country as well as log the history of a river.

Reports

No Reports Filed

Linked Reaches

Click a heading to sort. Hover over a heading for help.
River Name/Section Class Level running? Updated
Pit [CA] 2) Pit 1: Fall River Mills to Pit River Campground (Pit Fall... III-IV ~ 798 cfs
-59 cfs/hr
R3-
Runnable
04h47m